GW6614 Weather Reports


Display with metric or nautical units.
time (UTC)temp
F
wind
direction
speed
MPH
gust
MPH
rain 1hr
in
rain 24hr
in
rain mn
in
humidity
%
barometer
mb
20260504150204 57 0 0.0 0.0 0.02 0.06 0.06 91 1012.6
20260504141205 58 290 0.0 0.0 0.00 0.04 0.03 86 1012.9
20260504140704 58 348 0.0 0.0 0.00 0.04 0.03 86 1012.9
20260504140204 58 348 0.0 0.0 0.00 0.04 0.03 85 1012.9
20260504130704 60 194 0.0 0.0 0.00 0.06 0.03 81 1013.1
20260504130204 60 194 0.0 0.0 0.00 0.06 0.03 80 1013.2
20260504120204 60 167 0.0 0.0 0.01 0.06 0.03 83 1013.3
20260504110704 60 329 0.0 0.0 0.01 0.06 0.02 84 1013.4
20260504110226 60 287 0.0 0.0 0.02 0.06 0.02 85 1013.5
20260504100205 59 221 0.0 0.0 0.01 0.04 0.01 84 1013.8
20260504081205 59 355 0.0 0.0 0.00 0.03 0.00 80 1013.3
20260504080704 58 355 0.0 0.0 0.00 0.03 0.00 81 1013.3
20260504080204 58 355 0.0 0.0 0.00 0.03 0.00 81 1013.2
20260504070204 56 5 0.0 0.0 0.00 0.03 0.00 83 1013.0
20260504060204 52 323 0.0 0.0 0.00 0.03 0.00 92 1012.8
20260504050705 48 323 0.0 0.0 0.00 0.03 0.00 94 1013.0
20260504050204 48 323 0.0 0.0 0.00 0.03 0.00 95 1013.0
20260504045704 48 323 0.0 0.0 0.00 0.03 0.00 95 1012.9
20260504045204 48 323 0.0 0.0 0.00 0.03 0.00 94 1012.9
20260504044704 48 323 0.0 0.0 0.00 0.03 0.00 94 1012.8
20260504044205 48 323 0.0 0.0 0.00 0.03 0.00 94 1012.8
20260504043705 47 323 0.0 0.0 0.00 0.03 0.00 94 1012.8
20260504043204 47 323 0.0 0.0 0.00 0.03 0.00 95 1012.7
20260504042204 47 323 0.0 0.0 0.00 0.03 0.00 94 1012.7
20260504041705 47 323 0.0 0.0 0.00 0.03 0.00 94 1012.8
20260504041204 47 323 0.0 0.0 0.00 0.03 0.00 94 1012.8
20260504040705 47 323 0.0 0.0 0.00 0.03 0.00 94 1012.8
20260504035204 47 323 0.0 0.0 0.00 0.03 0.00 94 1012.8
20260504034704 47 323 0.0 0.0 0.00 0.03 0.00 94 1012.8
20260504034204 47 323 0.0 0.0 0.00 0.03 0.00 94 1012.8
20260504033705 47 323 0.0 0.0 0.00 0.03 0.00 94 1012.7
20260504033204 47 323 0.0 0.0 0.00 0.03 0.00 94 1012.7
20260504032704 47 323 0.0 0.0 0.00 0.03 0.00 94 1012.7
20260504032204 47 316 0.0 0.0 0.00 0.03 0.00 94 1012.7
20260504031704 47 309 0.0 0.0 0.00 0.03 0.00 94 1012.7
20260504031205 47 297 0.0 0.0 0.00 0.03 0.00 94 1012.7
20260504030704 47 297 0.0 0.0 0.00 0.03 0.00 94 1012.8
20260504030204 47 297 0.0 0.0 0.00 0.03 0.00 94 1012.8
20260504025704 47 295 0.0 0.0 0.00 0.03 0.00 93 1012.8
20260504025204 47 295 0.0 0.0 0.00 0.03 0.00 93 1012.8
20260504024704 47 295 0.0 0.0 0.00 0.03 0.00 93 1012.7
20260504024204 47 295 0.0 0.0 0.00 0.03 0.00 93 1012.6
20260504023704 47 295 0.0 0.0 0.00 0.03 0.00 93 1012.7
20260504023204 47 295 0.0 0.0 0.00 0.03 0.00 93 1012.7
20260504022704 48 295 0.0 0.0 0.00 0.03 0.00 93 1012.6
20260504022204 48 295 0.0 0.0 0.00 0.03 0.00 93 1012.6
20260504021704 48 295 0.0 0.0 0.00 0.03 0.00 93 1012.7
20260504021204 48 295 0.0 0.0 0.00 0.03 0.00 93 1012.8
20260504020704 48 295 0.0 0.0 0.00 0.03 0.00 93 1012.8
20260504020211 48 295 0.0 0.0 0.00 0.03 0.00 93 1012.9
20260504015704 48 295 0.0 0.0 0.00 0.03 0.00 93 1012.9
20260504015204 48 295 0.0 0.0 0.00 0.03 0.00 93 1013.0
20260504014704 48 295 0.0 0.0 0.00 0.03 0.00 93 1013.0
20260504014204 49 295 0.0 0.0 0.00 0.03 0.00 93 1013.0
20260504013704 49 295 0.0 0.0 0.00 0.03 0.00 93 1013.0
20260504012704 49 295 0.0 0.0 0.00 0.03 0.00 93 1013.0
20260504012224 49 295 0.0 0.0 0.00 0.03 0.00 93 1013.1
20260504010727 49 295 0.0 0.0 0.00 0.03 0.00 92 1013.0
20260504010204 49 295 0.0 0.0 0.00 0.03 0.00 92 1013.0
20260504005704 49 295 0.0 0.0 0.00 0.03 0.00 92 1013.1
20260504004704 49 295 0.0 0.0 0.00 0.03 0.00 92 1013.0
20260504003704 49 295 0.0 0.0 0.00 0.03 0.00 92 1013.0
20260504003204 49 295 0.0 0.0 0.00 0.03 0.00 92 1013.0
20260504001704 49 295 0.0 0.0 0.00 0.03 0.00 92 1013.1
20260504001205 49 295 0.0 0.0 0.00 0.03 0.00 92 1013.1
20260504000704 49 295 0.0 0.0 0.00 0.03 0.00 92 1012.9
20260504000204 50 295 0.0 0.0 0.00 0.03 0.00 92 1012.9
20260503235704 50 295 0.0 0.0 0.00 0.03 0.00 92 1012.9
20260503235205 50 295 0.0 0.0 0.00 0.03 0.00 92 1012.8
20260503234204 50 295 0.0 0.0 0.00 0.03 0.00 92 1012.7
20260503233704 50 295 0.0 0.0 0.00 0.03 0.00 92 1012.7
20260503233204 50 295 0.0 0.0 0.00 0.03 0.00 92 1012.7
20260503232704 50 295 0.0 0.0 0.00 0.03 0.00 91 1012.6
20260503232205 50 295 0.0 0.0 0.00 0.03 0.00 91 1012.8
20260503231704 50 295 0.0 0.0 0.00 0.03 0.00 92 1012.8
20260503231204 50 295 0.0 0.0 0.00 0.03 0.00 92 1012.7
20260503230705 50 295 0.0 0.0 0.00 0.03 0.00 92 1012.7
20260503230204 50 295 0.0 0.0 0.00 0.03 0.00 91 1012.7
20260503225705 50 295 0.0 0.0 0.00 0.03 0.00 91 1012.9
20260503225204 50 295 0.0 0.0 0.00 0.03 0.00 91 1012.9
20260503224705 51 295 0.0 0.0 0.00 0.03 0.00 91 1013.0
20260503224205 51 295 0.0 0.0 0.00 0.03 0.00 91 1013.0
20260503223704 51 295 0.0 0.0 0.00 0.03 0.00 91 1013.0
20260503223204 51 256 0.0 0.0 0.00 0.03 0.00 91 1013.1
20260503222704 51 256 0.0 0.0 0.00 0.03 0.00 91 1013.1
20260503222204 51 256 0.0 0.0 0.00 0.03 0.00 90 1013.1
20260503221204 51 256 0.0 0.0 0.00 0.03 0.00 90 1013.0
20260503220704 51 256 0.0 0.0 0.00 0.03 0.00 90 1012.8
20260503215704 51 256 0.0 0.0 0.00 0.03 0.03 90 1012.9
20260503215204 52 256 0.0 0.0 0.00 0.03 0.03 89 1012.9
20260503214704 52 256 0.0 0.0 0.00 0.03 0.03 89 1012.8
20260503214204 52 256 0.0 0.0 0.00 0.03 0.03 89 1012.9
20260503213704 52 256 0.0 0.0 0.00 0.03 0.03 89 1012.9
20260503213204 52 256 0.0 0.0 0.00 0.03 0.03 89 1012.9
20260503212204 52 256 0.0 0.0 0.00 0.03 0.03 89 1012.9
20260503211704 52 256 0.0 0.0 0.00 0.03 0.03 89 1012.8
20260503211204 53 256 0.0 0.0 0.00 0.03 0.03 89 1012.8
20260503210705 53 256 0.0 0.0 0.00 0.03 0.03 89 1012.6
20260503210204 53 256 0.0 0.0 0.00 0.03 0.03 89 1012.7
20260503205705 53 256 0.0 0.0 0.00 0.03 0.03 88 1012.7
20260503204704 53 256 0.0 0.0 0.00 0.03 0.03 88 1012.8
20260503203704 53 256 0.0 0.0 0.00 0.03 0.03 88 1012.9
20260503203204 53 256 0.0 0.0 0.00 0.03 0.03 87 1012.9
20260503202705 53 256 0.0 0.0 0.00 0.03 0.03 87 1012.9
20260503202204 54 256 0.0 0.0 0.00 0.03 0.03 87 1013.1
20260503201204 54 256 0.0 0.0 0.00 0.03 0.03 87 1012.9
20260503200704 55 256 0.0 0.0 0.00 0.03 0.03 87 1012.8
20260503200204 55 256 0.0 0.0 0.00 0.03 0.03 87 1013.0
20260503195705 55 256 0.0 0.0 0.00 0.03 0.03 87 1012.9
20260503195205 55 256 0.0 0.0 0.00 0.03 0.03 87 1012.7
20260503194204 56 256 0.0 0.0 0.00 0.03 0.03 86 1012.7
20260503193705 56 256 0.0 0.0 0.00 0.03 0.03 85 1012.7
20260503193204 56 256 0.0 0.0 0.00 0.03 0.03 85 1012.7
20260503192704 57 256 0.0 1.0 0.00 0.03 0.03 85 1012.8
20260503192205 57 256 0.0 1.0 0.00 0.03 0.03 85 1012.7
20260503191704 57 256 0.0 0.0 0.00 0.03 0.03 84 1012.7
20260503191205 58 256 0.0 0.0 0.00 0.03 0.03 83 1012.8
20260503190704 58 255 0.0 0.0 0.00 0.03 0.03 83 1012.8
20260503190205 58 255 0.0 0.0 0.00 0.03 0.03 82 1012.8
20260503185705 59 255 0.0 0.0 0.00 0.03 0.03 82 1012.8
20260503185205 59 255 0.0 0.0 0.00 0.03 0.03 82 1012.9
20260503184204 60 255 0.0 0.0 0.00 0.03 0.03 80 1012.7
20260503183704 60 255 0.0 0.0 0.00 0.03 0.03 79 1012.6
20260503182704 60 255 0.0 0.0 0.00 0.03 0.03 79 1012.5
20260503182205 60 256 0.0 1.0 0.00 0.03 0.03 79 1012.5
20260503181704 60 255 0.0 1.0 0.00 0.03 0.03 78 1012.4
20260503181205 60 255 0.0 1.0 0.00 0.03 0.03 78 1012.4
20260503180205 60 255 0.0 0.0 0.00 0.03 0.03 78 1012.3
20260503175705 60 255 0.0 0.0 0.00 0.03 0.03 78 1012.3
20260503175204 60 255 0.0 1.0 0.00 0.03 0.03 77 1012.3
20260503174704 60 255 0.0 1.0 0.00 0.03 0.03 77 1012.3
20260503174204 60 255 0.0 1.0 0.00 0.03 0.03 77 1012.4
20260503173704 61 255 0.0 1.0 0.00 0.03 0.03 77 1012.4
20260503173204 61 255 0.0 1.0 0.00 0.03 0.03 77 1012.4
20260503172705 61 255 0.0 1.0 0.00 0.03 0.03 76 1012.3
20260503172204 61 255 0.0 1.0 0.00 0.03 0.03 76 1012.3
20260503171704 61 255 0.0 2.0 0.00 0.03 0.03 75 1012.4
20260503171204 61 221 0.0 3.0 0.00 0.03 0.03 76 1012.4
20260503170704 60 221 0.0 3.0 0.00 0.03 0.03 75 1012.4
20260503160205 61 184 1.0 7.0 0.00 0.03 0.03 76 1012.6
20260503150704 59 178 1.0 6.0 0.01 0.03 0.03 86 1013.2